User: anonymous   Login
Location: Unspecified
(0.0000°N, 0.0000°E)
Time: 04:17:23
(UTC+00:00)
Language:

FIREFLY-2 - Orbit

View from above orbital plane
View from above orbital plane
View from above satellite
View from above satellite

Ground track
Ground track

The orbit is defined by the following mean orbital elements,

1 62704U          26145.54901109 +.00000000 +00000-0 +11426-3 0 00006
2 62704  97.7028 223.9463 0006942 143.7477 216.4214 14.92753817    04
Epoch (UTC): 25 May 2026 13:10:34
Eccentricity: 0.0006942
inclination: 97.7028°
perigee height: 585 km
apogee height: 594 km
right ascension of ascending node: 223.9463°
argument of perigee: 143.7477°
revolutions per day: 14.92753817
mean anomaly at epoch: 216.4214°

The dashed part of the orbit path shows where the satellite is in the earth's shadow,  

DLR